FW6727 Weather Reports


Display with metric or nautical units.
time (UTC)temp
F
wind
direction
speed
MPH
gust
MPH
rain 1hr
in
rain 24hr
in
rain mn
in
humidity
%
barometer
mb
20260906074544 70 269 1.0 3.0 0.00 0.00 0.00 95 1012.5
20260906073043 70 269 1.0 2.0 0.00 0.00 0.00 95 1012.6
20260906071557 70 269 0.0 3.0 0.00 0.00 0.00 95 1012.6
20260906070042 71 0 0.0 1.0 0.00 0.00 0.00 95 1012.7
20260906064545 71 0 0.0 2.0 0.00 0.00 0.00 94 1012.5
20260906063053 71 0 0.0 2.0 0.00 0.00 0.00 95 1012.8
20260906061543 71 269 0.0 2.0 0.00 0.00 0.00 95 1013.1
20260906060042 71 0 0.0 3.0 0.00 0.00 0.00 94 1013.1
20260906054546 71 269 0.0 2.0 0.00 0.00 0.00 94 1013.3
20260906053050 71 269 2.0 4.0 0.00 0.00 0.00 94 1013.5
20260906051543 71 269 1.0 2.0 0.00 0.00 0.00 94 1013.5
20260906050044 72 269 0.0 2.0 0.00 0.00 0.00 93 1013.7
20260906044546 72 269 1.0 3.0 0.00 0.00 0.00 93 1013.7
20260906043043 72 0 0.0 2.0 0.00 0.00 0.00 93 1013.7
20260906041542 72 0 0.0 2.0 0.00 0.00 0.00 93 1013.8
20260906040047 72 0 0.0 4.0 0.00 0.00 0.00 92 1013.8
20260906034547 73 267 0.0 2.0 0.00 0.00 0.00 92 1013.8
20260906033044 73 267 1.0 3.0 0.00 0.00 0.00 92 1013.8
20260906031550 73 267 0.0 3.0 0.00 0.00 0.00 91 1013.7
20260906030046 73 272 1.0 4.0 0.00 0.00 0.00 90 1013.8
20260906024558 74 0 1.0 3.0 0.00 0.00 0.00 90 1013.5
20260906023043 74 0 0.0 2.0 0.00 0.00 0.00 89 1013.4
20260906021552 74 284 1.0 3.0 0.00 0.00 0.00 89 1013.5
20260906020050 75 174 1.0 3.0 0.00 0.00 0.00 88 1013.6
20260906014552 75 173 2.0 5.0 0.00 0.00 0.00 87 1013.6
20260906013045 76 208 0.0 2.0 0.00 0.00 0.00 86 1013.5
20260906011545 76 210 1.0 3.0 0.00 0.00 0.00 84 1013.3
20260906010043 77 0 0.0 3.0 0.00 0.00 0.00 83 1013.1
20260906004549 78 225 1.0 3.0 0.00 0.00 0.00 82 1013.1
20260906003102 79 0 0.0 2.0 0.00 0.00 0.00 80 1012.8
20260906001545 79 281 1.0 3.0 0.00 0.00 0.00 80 1012.7
20260906000043 80 281 2.0 4.0 0.00 0.00 0.00 77 1012.7
20260905234541 81 288 2.0 3.0 0.00 0.00 0.00 76 1012.4
20260905233043 82 288 2.0 3.0 0.00 0.00 0.00 76 1012.6
20260905231544 82 288 1.0 4.0 0.00 0.00 0.00 74 1012.7
20260905230049 82 271 3.0 6.0 0.00 0.00 0.00 72 1012.7
20260905224542 82 317 0.0 3.0 0.00 0.00 0.00 71 1012.5
20260905223041 82 317 1.0 3.0 0.00 0.00 0.00 72 1012.4
20260905221545 82 311 3.0 6.0 0.00 0.00 0.00 73 1012.5
20260905220045 82 305 3.0 5.0 0.00 0.00 0.00 73 1012.6
20260905214546 82 65 1.0 7.0 0.00 0.00 0.00 73 1012.7
20260905213045 83 0 0.0 3.0 0.00 0.00 0.00 71 1013.2
20260905211607 83 138 2.0 8.0 0.00 0.00 0.00 70 1013.2
20260905210042 83 0 0.0 4.0 0.00 0.00 0.00 72 1013.4
20260905204556 83 142 1.0 5.0 0.00 0.00 0.00 70 1012.8
20260905203053 83 88 1.0 3.0 0.00 0.00 0.00 66 1013.0
20260905201545 83 161 0.0 8.0 0.00 0.00 0.00 65 1013.6
20260905200051 84 308 3.0 12.0 0.00 0.00 0.00 64 1013.6
20260905194550 84 30 4.0 10.0 0.00 0.00 0.00 65 1013.9
20260905193058 86 360 9.0 16.0 0.00 0.00 0.00 62 1013.6
20260905191551 89 340 8.0 20.0 0.00 0.00 0.00 55 1013.4
20260905190046 95 90 2.0 6.0 0.00 0.00 0.00 48 1013.1
20260905184550 96 86 2.0 8.0 0.00 0.00 0.00 47 1012.3
20260905183045 98 108 3.0 8.0 0.00 0.00 0.00 47 1012.5
20260905181544 98 97 3.0 9.0 0.00 0.00 0.00 48 1012.6
20260905180048 97 304 2.0 10.0 0.00 0.00 0.00 46 1013.2
20260905174544 96 85 2.0 8.0 0.00 0.00 0.00 50 1013.3
20260905173041 96 204 2.0 10.0 0.00 0.00 0.00 51 1013.5
20260905171546 96 140 5.0 11.0 0.00 0.00 0.00 51 1013.5
20260905170047 96 128 2.0 7.0 0.00 0.00 0.00 53 1013.5
20260905164543 96 311 3.0 9.0 0.00 0.00 0.00 53 1013.8
20260905163047 95 246 1.0 3.0 0.00 0.00 0.00 55 1014.2
20260905161544 93 117 2.0 8.0 0.00 0.00 0.00 57 1014.4
20260905160049 94 251 1.0 4.0 0.00 0.00 0.00 57 1014.4
20260905154554 92 5 2.0 7.0 0.00 0.00 0.00 61 1014.6
20260905153044 91 267 2.0 5.0 0.00 0.00 0.00 62 1014.9
20260905151545 91 317 2.0 5.0 0.00 0.00 0.00 64 1015.0
20260905150049 90 278 2.0 7.0 0.00 0.00 0.00 65 1014.9
20260905144549 88 319 3.0 6.0 0.00 0.00 0.00 69 1014.9
20260905143049 87 260 1.0 4.0 0.00 0.00 0.00 72 1015.0
20260905141546 85 292 1.0 4.0 0.00 0.00 0.00 75 1015.2
20260905140048 84 0 0.0 4.0 0.00 0.00 0.00 77 1015.4
20260905134543 82 315 2.0 8.0 0.00 0.00 0.00 81 1015.7
20260905133049 81 311 2.0 7.0 0.00 0.00 0.00 83 1015.7
20260905131551 80 315 2.0 6.0 0.00 0.00 0.00 85 1015.6
20260905130042 79 265 2.0 6.0 0.00 0.00 0.00 90 1015.5
20260905124543 75 0 0.0 2.0 0.00 0.00 0.00 97 1015.6
20260905123042 74 0 0.0 2.0 0.00 0.00 0.00 97 1015.5
20260905121544 73 197 1.0 2.0 0.00 0.00 0.00 97 1015.5
20260905120043 73 196 1.0 2.0 0.00 0.00 0.00 97 1015.1
20260905114545 72 194 1.0 3.0 0.00 0.00 0.00 96 1015.0
20260905113044 72 0 0.0 0.0 0.00 0.00 0.00 96 1015.0
20260905111557 72 0 0.0 2.0 0.00 0.00 0.00 96 1014.6
20260905110041 72 0 0.0 0.0 0.00 0.00 0.00 96 1014.4
20260905104547 72 0 0.0 0.0 0.00 0.00 0.00 96 1014.3
20260905103045 72 0 0.0 0.0 0.00 0.00 0.00 96 1014.1
20260905101546 72 0 0.0 1.0 0.00 0.00 0.00 96 1014.2
20260905100042 72 0 0.0 1.0 0.00 0.00 0.00 96 1014.1
20260905094549 72 194 0.0 2.0 0.00 0.00 0.00 95 1014.0
20260905093044 73 194 0.0 1.0 0.00 0.00 0.00 96 1014.2
20260905091541 73 194 1.0 2.0 0.00 0.00 0.00 96 1014.2
20260905090047 73 194 1.0 2.0 0.00 0.00 0.00 95 1014.3
20260905084550 73 0 0.0 2.0 0.00 0.00 0.00 95 1014.2
20260905083041 73 0 0.0 2.0 0.00 0.00 0.00 95 1014.3
20260905081542 73 194 0.0 1.0 0.00 0.00 0.00 95 1014.4
20260905080056 74 194 1.0 2.0 0.00 0.00 0.00 95 1014.5